Wind_Speed
10 10 10 10 9 9 9 8 7 7 7 7 7 7 7 7 7 7 7 6 6 6 5 5 5 4 4 3 3 3 2 1 1 1 1 2 3 3 4 4 4 4 4
9 10 10 9 9 8 9 8 7 6 6 6 6 6 6 6 7 7 7 7 7 6 6 6 5 4 4 4 3 3 2 2 2 2 3 3 4 5 5 6 6 6 6
8 9 9 9 9 8 8 8 7 6 6 6 7 7 7 6 6 7 6 6 6 6 6 5 5 5 5 6 5 5 4 4 4 4 4 5 6 6 7 7 8 8 8
8 9 8 8 9 9 8 8 7 6 6 6 7 7 7 7 7 7 6 5 6 6 6 6 6 6 6 6 6 6 6 6 6 6 6 7 7 8 9 10 10 10 10
9 10 10 10 9 9 8 8 8 7 7 7 7 8 7 7 8 7 6 6 6 6 7 7 7 7 7 7 7 7 7 7 7 8 8 8 8 9 10 11 11 12 12
9 10 10 10 9 9 9 8 8 8 8 8 8 8 8 8 8 7 7 7 7 8 8 9 9 10 9 9 8 8 8 8 9 9 8 8 9 9 10 10 12 13 13
8 9 9 9 9 9 9 9 9 9 9 9 9 9 9 8 8 8 7 8 8 9 10 10 11 11 11 10 10 9 9 10 10 10 10 10 10 10 11 11 12 13 14
9 9 9 10 10 10 9 9 10 10 10 10 10 10 10 9 9 9 9 9 10 11 11 12 12 13 12 12 11 11 11 11 11 12 12 12 12 13 13 13 14 14 14
10 10 10 11 10 11 11 10 11 11 11 11 11 11 10 10 10 11 11 11 12 12 12 12 13 13 13 12 12 13 13 12 12 13 13 14 14 15 15 16 15 16 16
12 12 11 11 11 11 12 12 12 12 12 12 12 12 11 11 12 12 12 13 13 14 14 14 15 14 14 14 14 15 15 14 14 15 15 15 16 16 17 18 17 18 18
12 13 13 13 13 12 12 13 13 13 14 14 14 14 13 13 13 14 14 14 15 16 16 16 16 16 16 16 17 17 16 16 17 17 17 17 17 18 19 19 19 19 19
14 14 15 14 15 14 14 15 15 15 15 15 15 15 14 14 14 15 15 15 16 16 17 17 17 17 17 18 18 18 18 18 18 18 18 18 18 19 19 19 19 20 20
15 16 17 17 18 17 17 16 17 17 16 16 16 16 16 16 16 17 16 16 17 17 18 18 18 19 19 19 20 20 20 19 20 20 19 19 20 20 20 20 20 21 21
18 18 19 19 19 19 18 18 18 18 17 17 17 17 17 17 18 18 18 18 18 19 19 20 20 21 21 21 22 22 22 22 22 22 21 21 22 22 22 22 22 22 22
20 20 20 19 19 19 19 19 19 19 18 18 18 19 19 19 19 19 19 19 20 21 21 22 22 23 23 23 24 24 23 24 24 24 24 24 24 24 24 24 24 24 24
21 20 20 19 19 20 20 19 19 19 20 20 19 20 20 21 21 21 21 21 22 23 23 23 24 24 24 24 25 25 25 25 25 26 26 26 26 26 26 27 26 26 26
22 22 21 21 21 22 21 21 21 21 21 20 21 21 22 22 22 23 23 23 24 24 24 24 25 25 25 25 26 26 26 26 26 27 27 28 28 28 28 28 28 28 28
23 23 23 23 23 23 23 23 23 22 22 22 23 23 23 24 24 24 25 25 25 26 26 26 27 27 27 27 27 27 28 28 28 28 29 30 30 30 29 29 28 29 29
23 24 24 24 24 24 24 24 24 24 24 24 25 25 25 25 26 26 27 27 27 27 28 28 29 29 29 29 29 29 29 29 29 29 30 30 29 30 30 29 29 29 30
26 26 25 26 26 26 25 25 25 25 26 26 27 27 26 27 27 27 27 27 28 29 29 30 30 30 30 30 30 31 31 31 30 30 29 30 30 30 30 29 29 29 30
27 27 27 28 27 27 26 26 26 26 27 28 28 28 27 27 27 28 28 29 29 30 30 31 31 31 31 31 31 31 32 31 30 30 30 29 30 30 29 29 29 29 30
28 28 28 28 28 28 27 26 27 27 28 28 28 28 28 28 28 29 29 30 30 31 31 31 32 32 32 32 32 32 32 32 31 30 30 30 30 30 29 29 29 29 30
30 30 30 29 29 28 28 27 28 29 29 29 28 28 29 29 29 30 30 30 31 31 32 32 32 32 32 33 33 32 32 32 31 30 30 31 31 30 30 30 30 30 30
32 32 31 30 30 30 30 30 30 30 29 30 30 30 30 30 30 30 31 31 31 32 32 32 32 32 32 32 32 31 31 31 31 31 31 30 30 30 30 30 30 29 29
32 31 31 31 31 31 30 30 29 30 30 30 30 30 30 30 31 31 31 32 31 31 31 31 32 32 31 31 31 30 30 30 30 30 29 30 30 30 30 30 30 29 29
32 31 31 31 32 31 30 30 30 30 30 31 30 30 31 31 31 31 32 32 32 32 32 31 31 30 30 30 30 29 29 29 29 29 29 30 30 30 29 29 29 28 28
Wind_Direction
18 21 19 18 16 16 17 13 13 12 16 21 24 23 19 17 21 23 23 20 29 34 33 31 28 29 22 14 13 17 22 360 343 318 290 280 279 278 284 287 288 289 285
15 16 15 13 10 9 8 6 3 4 5 8 14 14 15 16 15 16 15 13 19 27 28 28 23 10 353 346 344 342 333 320 318 310 299 284 276 274 277 281 285 287 283
6 4 4 2 358 359 0 358 358 4 6 3 3 2 1 4 8 8 5 2 8 12 14 16 8 358 350 336 328 314 305 304 302 297 295 294 284 282 279 280 282 286 284
355 351 346 351 349 349 350 348 347 351 353 352 352 348 347 347 350 353 354 353 353 354 354 351 350 352 348 337 325 310 303 300 293 288 287 288 287 284 283 282 281 281 280
349 347 342 340 341 340 338 337 334 331 333 338 339 338 338 337 336 337 333 333 334 335 336 337 336 334 333 326 316 304 303 299 295 293 293 290 286 285 285 285 283 280 280
349 345 341 339 339 337 333 332 331 331 332 332 333 333 330 326 325 323 322 326 325 324 324 323 325 323 320 313 310 306 299 291 287 287 291 293 289 285 285 287 286 284 283
340 338 334 333 331 331 329 327 327 328 328 326 326 328 326 321 319 315 310 311 311 313 312 313 316 318 316 309 305 301 298 289 284 282 284 287 285 280 282 284 286 286 283
332 328 323 321 322 323 323 322 321 318 317 318 320 319 320 318 314 310 304 300 301 304 307 311 314 316 315 309 305 304 298 292 288 284 282 283 284 282 284 285 284 284 283
323 323 323 320 321 320 318 314 315 313 313 313 314 314 312 311 309 305 303 302 302 302 302 305 308 310 310 309 305 306 298 294 291 287 284 282 282 283 284 285 284 283 282
320 317 321 319 317 316 315 315 313 311 311 312 311 308 306 307 304 302 302 303 303 300 300 300 302 303 303 301 301 301 296 293 293 292 287 282 282 284 285 285 284 284 284
318 317 315 313 311 308 309 310 309 309 308 308 308 307 305 304 303 301 299 299 299 299 299 299 299 298 298 297 298 297 296 291 290 290 289 287 285 286 287 286 285 286 285
315 316 312 311 308 303 302 304 304 303 303 304 305 306 304 303 302 301 300 298 297 297 298 298 297 297 297 294 294 295 294 293 291 290 289 289 289 288 289 288 288 288 284
308 308 307 306 303 300 298 299 299 299 299 300 301 301 302 301 301 301 300 298 297 296 297 298 297 296 297 295 294 293 292 292 290 289 288 287 287 287 288 288 288 286 284
302 301 302 303 300 298 296 295 296 297 297 298 298 297 297 298 299 299 298 297 295 294 294 295 295 294 294 293 292 292 291 290 289 289 286 285 285 285 284 284 286 285 283
301 299 299 298 297 296 294 293 294 295 295 296 296 296 295 296 297 297 297 296 295 294 294 293 293 293 292 292 292 291 291 290 289 289 286 284 284 283 282 282 283 282 281
299 297 297 296 297 297 294 292 293 293 295 295 295 294 294 294 296 297 297 296 294 294 294 293 293 293 292 291 292 292 292 290 288 287 286 283 283 282 282 281 280 280 280
295 295 296 295 298 299 298 294 293 292 294 294 294 294 294 294 295 295 295 295 295 294 294 293 292 292 292 292 292 290 290 290 289 287 284 282 282 281 281 281 279 279 280
292 294 293 293 295 295 294 294 293 292 292 292 292 292 293 293 294 294 294 294 293 294 294 293 293 292 292 292 293 292 290 290 290 288 286 284 282 280 280 280 278 277 278
289 291 292 292 293 293 292 292 290 290 290 291 292 291 292 292 292 292 293 293 293 293 293 294 293 293 292 292 291 291 292 291 290 289 287 286 284 282 280 280 279 278 278
287 289 289 291 290 290 289 290 290 289 289 289 290 290 291 291 291 292 292 293 292 292 293 293 293 292 293 293 292 291 291 290 288 287 286 285 283 282 280 280 280 280 279
285 287 291 292 291 290 288 289 289 289 289 289 289 289 289 291 292 292 293 293 293 292 293 293 293 293 293 293 292 292 291 290 287 286 286 285 284 282 280 280 281 281 280
284 286 287 289 290 289 288 288 287 288 288 289 290 290 290 291 291 292 294 294 295 295 294 293 293 294 293 292 292 290 290 289 287 286 285 284 283 281 280 281 281 282 281
281 282 283 285 286 286 286 285 286 287 288 289 291 291 290 290 291 293 294 295 296 296 295 295 294 293 293 292 291 289 289 288 287 286 285 283 283 281 279 279 280 281 280
281 281 281 282 282 283 287 286 286 286 287 289 291 292 291 291 292 294 294 296 297 297 296 295 294 294 293 292 290 289 288 288 287 285 284 283 282 280 279 280 281 281 281
278 280 282 282 281 282 284 284 284 286 287 289 290 290 291 292 292 294 295 296 297 297 296 295 294 293 292 291 291 290 291 291 289 287 284 284 282 279 278 280 280 280 281
276 278 280 281 280 279 282 283 285 286 287 288 290 290 291 292 293 294 295 296 296 295 294 294 294 294 293 292 291 292 292 291 290 289 286 284 282 280 278 280 281 281 282
Height
5906 5905 5904 5903 5901 5900 5898 5897 5896 5894 5893 5892 5891 5890 5889 5887 5886 5885 5884 5883 5882 5881 5880 5879 5878 5877 5876 5875 5875 5874 5874 5873 5873 5873 5872 5872 5872 5871 5871 5870 5870 5869 5868
5907 5906 5904 5903 5901 5900 5899 5897 5896 5894 5893 5892 5891 5890 5889 5888 5887 5885 5884 5883 5882 5880 5879 5878 5877 5877 5875 5875 5874 5873 5873 5872 5872 5872 5871 5871 5871 5870 5869 5869 5868 5867 5866
5906 5906 5904 5903 5901 5900 5898 5897 5895 5894 5893 5892 5890 5889 5888 5887 5886 5885 5884 5882 5881 5880 5879 5878 5877 5876 5874 5873 5872 5871 5871 5871 5870 5870 5870 5869 5868 5868 5867 5866 5866 5865 5864
5905 5905 5903 5902 5901 5899 5898 5896 5895 5893 5892 5891 5890 5889 5887 5886 5885 5884 5883 5882 5880 5879 5878 5877 5875 5874 5873 5871 5870 5870 5869 5869 5868 5868 5867 5867 5866 5865 5865 5864 5863 5862 5861
5904 5903 5902 5901 5900 5898 5897 5895 5894 5893 5891 5890 5889 5888 5886 5885 5884 5882 5881 5880 5879 5878 5876 5875 5874 5872 5871 5870 5868 5867 5867 5866 5866 5865 5864 5864 5863 5862 5862 5860 5859 5859 5858
5903 5902 5901 5900 5898 5897 5896 5894 5893 5892 5890 5889 5888 5886 5885 5883 5882 5881 5880 5878 5877 5876 5875 5873 5872 5870 5868 5867 5866 5865 5864 5864 5863 5862 5861 5860 5860 5859 5858 5857 5856 5855 5854
5901 5900 5899 5898 5897 5895 5894 5893 5891 5890 5889 5887 5886 5884 5883 5881 5880 5879 5878 5876 5875 5874 5872 5870 5869 5867 5865 5864 5863 5862 5861 5861 5860 5859 5858 5857 5856 5855 5855 5854 5852 5851 5851
5899 5898 5897 5896 5895 5894 5892 5891 5889 5888 5887 5885 5884 5882 5881 5879 5878 5876 5875 5874 5873 5871 5869 5868 5866 5864 5862 5861 5860 5859 5858 5857 5856 5855 5854 5853 5852 5851 5850 5849 5848 5847 5846
5897 5896 5895 5893 5892 5891 5890 5888 5887 5886 5885 5883 5881 5880 5878 5876 5875 5873 5872 5871 5869 5868 5866 5864 5863 5861 5859 5858 5857 5855 5854 5853 5852 5851 5849 5848 5848 5846 5846 5844 5843 5843 5842
5894 5893 5892 5891 5890 5889 5888 5886 5885 5883 5882 5880 5878 5877 5875 5873 5872 5870 5869 5868 5866 5864 5862 5861 5859 5857 5856 5854 5853 5851 5850 5849 5847 5846 5845 5844 5843 5842 5840 5839 5838 5837 5837
5891 5890 5889 5888 5887 5885 5884 5883 5882 5880 5879 5877 5875 5873 5871 5870 5868 5867 5866 5864 5862 5860 5859 5857 5855 5854 5852 5850 5849 5847 5846 5844 5842 5841 5840 5839 5838 5837 5835 5834 5833 5832 5831
5887 5887 5885 5884 5883 5882 5881 5879 5878 5877 5875 5873 5871 5869 5867 5866 5864 5863 5861 5860 5858 5856 5854 5852 5851 5849 5847 5846 5844 5843 5841 5839 5838 5836 5835 5834 5833 5831 5830 5828 5827 5826 5825
5884 5883 5882 5881 5880 5878 5877 5876 5874 5873 5871 5869 5867 5865 5864 5862 5860 5858 5857 5855 5853 5851 5849 5848 5846 5844 5842 5841 5839 5837 5836 5834 5833 5831 5830 5828 5827 5826 5824 5823 5821 5820 5819
5880 5879 5878 5877 5875 5874 5873 5871 5870 5868 5866 5865 5863 5861 5859 5857 5855 5854 5852 5850 5848 5846 5844 5842 5841 5839 5837 5835 5833 5832 5830 5828 5827 5825 5824 5822 5821 5820 5818 5817 5815 5814 5812
5875 5874 5873 5872 5870 5869 5868 5866 5864 5863 5861 5859 5858 5856 5854 5852 5850 5848 5846 5844 5842 5840 5838 5837 5835 5833 5831 5829 5827 5825 5824 5822 5820 5818 5817 5815 5814 5812 5811 5810 5808 5807 5806
5870 5869 5868 5867 5865 5864 5862 5861 5859 5857 5855 5854 5852 5850 5848 5846 5844 5842 5840 5838 5836 5834 5832 5830 5828 5826 5824 5822 5820 5818 5817 5815 5813 5811 5809 5808 5806 5805 5803 5802 5801 5800 5798
5865 5864 5863 5861 5860 5859 5857 5855 5853 5851 5849 5848 5846 5844 5842 5840 5838 5836 5834 5832 5829 5827 5825 5823 5821 5819 5817 5815 5813 5811 5809 5807 5805 5803 5801 5800 5798 5796 5795 5794 5792 5791 5790
5858 5857 5856 5855 5854 5852 5851 5849 5847 5845 5843 5842 5840 5838 5836 5834 5832 5830 5827 5825 5823 5821 5818 5816 5814 5812 5810 5807 5805 5803 5801 5799 5797 5795 5793 5791 5790 5788 5786 5785 5783 5782 5781
5852 5851 5850 5848 5847 5846 5844 5843 5841 5839 5837 5835 5833 5831 5829 5827 5824 5822 5820 5818 5815 5813 5810 5808 5806 5803 5801 5799 5797 5795 5792 5790 5788 5786 5784 5782 5781 5779 5777 5776 5775 5774 5772
5846 5845 5843 5841 5840 5838 5837 5835 5834 5832 5830 5828 5826 5823 5821 5819 5816 5814 5812 5809 5807 5804 5802 5799 5797 5795 5792 5790 5788 5785 5783 5781 5779 5777 5774 5773 5771 5770 5768 5767 5766 5765 5763
5839 5837 5836 5835 5833 5831 5829 5827 5826 5824 5822 5820 5818 5815 5813 5811 5808 5806 5803 5801 5798 5796 5793 5791 5788 5785 5783 5781 5778 5776 5773 5771 5769 5767 5765 5763 5762 5760 5759 5758 5757 5755 5754
5831 5830 5828 5827 5825 5823 5822 5820 5818 5816 5814 5812 5809 5807 5805 5802 5800 5798 5795 5792 5789 5787 5784 5781 5779 5776 5773 5771 5768 5766 5764 5762 5760 5758 5756 5754 5752 5751 5749 5748 5747 5745 5744
5823 5822 5820 5819 5817 5815 5814 5812 5810 5808 5806 5804 5801 5799 5796 5794 5791 5789 5786 5784 5781 5778 5775 5772 5769 5767 5764 5761 5758 5756 5754 5752 5750 5748 5746 5744 5743 5741 5740 5739 5737 5736 5734
5814 5813 5812 5810 5809 5808 5806 5804 5802 5799 5797 5795 5793 5790 5788 5785 5783 5780 5778 5775 5772 5769 5766 5763 5760 5757 5754 5751 5749 5746 5744 5742 5740 5738 5736 5735 5733 5732 5731 5729 5728 5726 5725
5805 5804 5803 5801 5800 5799 5797 5795 5793 5791 5789 5787 5784 5782 5779 5777 5774 5772 5769 5766 5763 5760 5756 5753 5750 5748 5745 5742 5739 5737 5735 5733 5731 5728 5727 5725 5723 5722 5721 5719 5718 5716 5715
5796 5794 5793 5792 5791 5790 5788 5787 5785 5782 5780 5778 5776 5773 5771 5768 5766 5763 5760 5756 5754 5751 5747 5744 5741 5738 5735 5732 5730 5728 5726 5723 5721 5719 5718 5716 5714 5712 5711 5709 5708 5707 5706